Stations météo

Publicité
Charleville, France (7075): Température de l'air & dewpoint: 20.05.2019 18:00:00 - 26.05.2019 18:00:00 (CEST)Charleville, France (7075): Température de l'air 5cm: 20.05.2019 18:00:00 - 26.05.2019 18:00:00 (CEST)Charleville, France (7075): Température de l'air -20cm & Température de l'air -100cm: 20.05.2019 18:00:00 - 26.05.2019 18:00:00 (CEST)Charleville, France (7075): Vitesse du vent & gusts: 20.05.2019 18:00:00 - 26.05.2019 18:00:00 (CEST)Charleville, France (7075): Direction du vent: 20.05.2019 18:00:00 - 26.05.2019 18:00:00 (CEST)Charleville, France (7075): reduced air pressure: 20.05.2019 18:00:00 - 26.05.2019 18:00:00 (CEST)Charleville, France (7075): visibility: 20.05.2019 18:00:00 - 26.05.2019 18:00:00 (CEST)Charleville, France (7075): Ensoleillement: 20.05.2019 18:00:00 - 26.05.2019 18:00:00 (CEST)Charleville, France (7075): Quantités de précipitations: 20.05.2019 18:00:00 - 26.05.2019 18:00:00 (CEST)
Date & Time tt [°C] td [°C] tt 5cm [°C] tt -20cm [°C] tt -100cm [°C] ff [km/h] ff [knt] fx [km/h] fx [knt] dd ppp [hPa] vv [km] sd [min] rr [mm]
26.05.2019 18:00:00 18,9 12,6 - - - 21 11 37 20 W 1014,2 20 0 -
26.05.2019 17:00:00 20,6 11,0 22,6 15,4 12,2 15 8 29 15 W 1014,4 20 20 0,0
26.05.2019 16:00:00 20,6 11,5 21,5 15,2 12,2 11 6 31 17 WSW 1014,9 20 15 0,0
26.05.2019 15:00:00 19,7 11,2 22,1 15,0 12,2 13 7 27 15 W 1015,5 20 32 0,0
26.05.2019 14:00:00 20,7 11,3 27,4 14,8 12,2 15 8 27 15 SW 1015,9 20 55 0,0
26.05.2019 13:00:00 19,7 13,6 26,9 14,7 12,2 12 7 31 17 W 1016,8 20 60 0,0
26.05.2019 12:00:00 18,7 12,2 24,1 14,7 12,2 13 7 29 16 W 1017,2 20 60 0,0
26.05.2019 11:00:00 15,8 13,5 18,2 14,7 12,1 6 3 13 7 SE 1017,6 19 39 0,0
26.05.2019 10:00:00 12,0 11,7 12,7 14,8 12,2 8 4 13 7 E 1018,3 8 17 0,0
26.05.2019 09:00:00 10,1 9,9 10,9 14,8 12,1 4 2 9 5 SSE 1018,6 0,5 0 0,0
26.05.2019 08:00:00 8,9 8,6 9,1 14,8 12,1 4 2 10 6 ESE 1018,5 0,2 0 0,0
26.05.2019 07:00:00 8,1 7,8 8,5 14,9 12,1 3 1 5 3 S 1018,6 0,1 0 0,0
26.05.2019 06:00:00 8,1 7,8 8,4 15,0 12,1 2 1 5 3 W 1018,6 0,2 0 0,0
26.05.2019 05:00:00 8,2 7,9 8,4 15,1 12,1 3 1 5 3 WNW 1018,7 0,2 0 0,0
26.05.2019 04:00:00 8,2 7,9 8,2 15,2 12,1 2 1 5 3 SSW 1018,9 0,1 0 0,0
26.05.2019 03:00:00 7,9 7,6 5,4 15,3 12,1 3 1 4 2 W 1019,2 0,2 0 0,0
26.05.2019 02:00:00 6,5 6,1 3,2 15,4 12,1 2 1 4 2 WSW 1019,5 0,3 0 0,0
26.05.2019 01:00:00 6,7 6,0 3,3 15,4 12,1 0 0 6 4 N 1019,7 0,3 0 0,0
26.05.2019 00:00:00 8,6 7,8 4,1 15,4 12,1 3 2 5 3 NW 1019,7 0,5 0 0,0
25.05.2019 23:00:00 9,4 8,3 5,3 15,4 12,1 2 1 7 4 N 1019,6 5 0 0,0
25.05.2019 22:00:00 11,5 9,7 8,7 15,4 12,0 4 2 9 5 SSE 1019,0 2,6 1 0,0
25.05.2019 21:00:00 15,7 10,5 14,3 15,3 12,0 8 4 17 9 NW 1018,1 20 53 0,0
25.05.2019 20:00:00 16,9 10,7 17,2 15,3 12,1 9 5 16 8 N 1017,9 20 60 0,0
25.05.2019 19:00:00 18,2 11,7 18,1 15,2 12,0 7 4 12 7 WNW 1017,7 19 60 0,0
25.05.2019 18:00:00 16,8 12,5 15,1 15,2 12,0 7 4 15 8 W 1018,1 20 48 0,0
25.05.2019 17:00:00 14,0 12,6 12,5 15,1 12,1 8 4 16 9 S 1018,5 20 0 2,8
25.05.2019 16:00:00 13,0 11,7 12,4 15,0 12,0 7 4 29 16 E 1019,0 3,9 8 5,3
25.05.2019 15:00:00 19,0 12,0 21,7 14,9 12,0 15 8 27 15 W 1017,4 19 34 0,0
25.05.2019 14:00:00 16,9 11,6 20,2 14,8 12,0 19 10 30 16 WNW 1018,4 20 8 0,0
25.05.2019 13:00:00 17,3 9,5 19,5 14,8 12,0 22 12 31 17 W 1018,5 20 0 0,0
25.05.2019 12:00:00 17,4 9,6 19,3 14,8 12,0 16 8 21 12 WNW 1018,2 19 33 0,0
25.05.2019 11:00:00 17,7 10,6 19,6 14,8 12,0 3 2 9 5 NW 1018,3 20 25 0,0
25.05.2019 10:00:00 14,8 9,2 15,7 14,9 12,0 3 1 10 5 WNW 1018,4 20 0 0,0
25.05.2019 09:00:00 13,2 8,5 15,9 15,0 12,0 5 3 11 6 WNW 1018,3 20 29 0,0
25.05.2019 08:00:00 11,2 8,1 9,9 15,1 12,0 4 2 8 4 NW 1018,2 20 60 0,0
25.05.2019 07:00:00 8,1 7,2 1,7 15,2 12,0 2 1 5 3 W 1018,2 17 33 0,0
25.05.2019 06:00:00 5,7 4,5 1,7 15,3 12,0 0 0 8 4 N 1018,2 15 0 0,0
25.05.2019 05:00:00 7,0 5,6 2,9 15,4 12,0 2 1 6 4 NW 1017,7 20 0 0,0
25.05.2019 04:00:00 8,2 6,2 3,8 15,5 12,0 0 0 6 3 N 1017,5 20 0 0,0
25.05.2019 03:00:00 10,6 6,7 7,3 15,5 12,0 3 2 8 5 NNW 1017,2 20 0 0,0
25.05.2019 02:00:00 12,9 6,9 9,7 15,6 12,0 3 1 14 8 WSW 1017,1 20 0 0,0
25.05.2019 01:00:00 12,8 7,2 9,0 15,6 11,9 3 2 14 7 NW 1017,1 20 0 0,0
25.05.2019 00:00:00 14,4 7,2 11,4 15,6 12,0 8 4 18 10 W 1017,0 20 0 0,0
24.05.2019 23:00:00 15,5 8,0 12,7 15,6 12,0 10 5 17 9 WNW 1016,6 20 0 0,0
24.05.2019 22:00:00 15,1 8,1 11,2 15,6 12,0 8 5 21 12 NW 1016,1 20 3 0,0
24.05.2019 21:00:00 19,2 7,9 17,4 15,5 11,9 6 3 16 9 NW 1015,1 20 55 0,0
24.05.2019 20:00:00 20,7 9,9 20,4 15,4 11,9 6 4 23 13 NNW 1014,6 20 46 0,0
24.05.2019 19:00:00 21,2 9,1 22,1 15,3 11,9 16 9 26 14 W 1014,6 20 60 0,0
24.05.2019 18:00:00 22,4 8,9 23,1 15,1 11,9 16 9 29 16 WNW 1014,7 20 60 0,0
24.05.2019 17:00:00 22,7 9,5 25,2 15,0 11,9 21 12 34 18 W 1014,9 20 60 0,0
24.05.2019 16:00:00 22,7 9,1 28,7 14,8 11,9 16 9 31 17 WNW 1015,1 20 60 0,0
24.05.2019 15:00:00 22,2 9,4 26,3 14,6 11,9 15 8 29 16 W 1015,3 20 44 0,0
24.05.2019 14:00:00 21,6 10,4 25,9 14,5 11,9 14 8 25 14 WNW 1015,4 20 34 0,0
24.05.2019 13:00:00 22,1 9,3 29,8 14,4 11,9 10 5 19 11 W 1015,4 20 60 0,0
24.05.2019 12:00:00 21,4 8,3 30,1 14,3 11,9 5 3 12 6 WSW 1015,6 20 60 0,0
24.05.2019 11:00:00 20,5 9,1 23,5 14,4 11,9 4 2 11 6 W 1015,8 20 60 0,0
24.05.2019 10:00:00 17,3 10,2 16,7 14,4 11,9 2 1 6 4 W 1016,3 20 51 0,0
24.05.2019 09:00:00 12,5 9,3 12,8 14,5 11,9 2 1 8 4 SSE 1016,7 20 27 0,0
24.05.2019 08:00:00 9,4 8,8 7,6 14,7 11,9 3 1 6 3 W 1017,1 20 36 0,0
24.05.2019 07:00:00 6,7 6,3 2,1 14,7 11,9 0 0 4 2 N 1017,0 4,8 17 0,0
24.05.2019 06:00:00 5,2 4,6 1,5 14,8 11,9 2 1 5 3 NNW 1017,1 0,8 0 0,0
24.05.2019 05:00:00 5,7 5,0 2,0 15,0 11,9 2 1 6 3 W 1016,8 1,4 0 0,0
24.05.2019 04:00:00 6,9 6,0 3,1 15,0 11,9 4 2 6 4 NW 1016,8 4,3 0 0,0
24.05.2019 03:00:00 7,9 7,0 3,9 15,1 11,9 2 1 6 3 W 1016,7 7 0 0,0
24.05.2019 02:00:00 9,3 8,2 4,5 15,1 11,9 2 1 4 2 NNW 1016,8 20 0 0,0
24.05.2019 01:00:00 10,4 8,7 7,6 15,1 11,9 0 0 3 2 N 1017,0 20 0 0,0
24.05.2019 00:00:00 11,1 9,4 8,5 15,2 11,9 0 0 4 2 N 1017,3 20 0 0,0
23.05.2019 23:00:00 12,9 9,7 10,1 15,1 11,9 4 2 6 4 W 1017,1 20 0 0,0
23.05.2019 22:00:00 13,4 9,8 11,2 15,1 11,9 2 1 6 4 NNW 1017,2 20 0 0,0
23.05.2019 21:00:00 16,2 8,4 12,4 15,0 11,9 3 1 10 5 ENE 1016,7 20 0 0,0
23.05.2019 20:00:00 20,2 7,5 20,1 14,8 11,9 6 3 14 7 WSW 1016,5 20 35 0,0
23.05.2019 19:00:00 21,4 4,0 21,5 14,7 11,9 6 3 21 12 WSW 1016,5 20 40 0,0
23.05.2019 18:00:00 22,4 4,9 22,6 14,5 11,9 9 5 14 8 WNW 1016,8 20 60 0,0
23.05.2019 17:00:00 22,3 6,9 24,7 14,2 11,8 7 4 17 9 SW 1017,1 20 56 0,0
23.05.2019 16:00:00 21,3 7,5 27,6 14,1 11,8 8 4 19 11 NW 1017,5 20 60 0,0
23.05.2019 15:00:00 21,5 7,7 24,8 13,9 11,8 4 2 16 9 SE 1017,9 20 35 0,0
23.05.2019 14:00:00 20,5 8,2 23,2 13,8 11,8 9 5 16 9 NW 1018,4 20 36 0,0
23.05.2019 13:00:00 19,6 7,7 22,4 13,7 11,9 8 5 19 10 WNW 1018,8 20 35 0,0
23.05.2019 12:00:00 19,3 7,7 21,1 13,6 11,8 8 4 19 11 SW 1019,3 20 36 0,0
23.05.2019 11:00:00 19,0 11,6 21,5 13,6 11,8 5 3 11 6 ENE 1019,6 20 60 0,0
23.05.2019 10:00:00 16,6 10,4 17,5 13,7 11,8 4 2 10 5 E 1019,9 20 60 0,0
23.05.2019 09:00:00 13,8 10,0 15,3 13,8 11,8 3 1 9 5 E 1020,3 20 60 0,0
23.05.2019 08:00:00 9,8 9,0 6,2 13,9 11,8 0 0 3 2 N 1020,6 13 60 0,0
23.05.2019 07:00:00 5,3 5,0 0,5 14,0 11,8 0 0 4 2 N 1020,6 3,1 41 0,0
23.05.2019 06:00:00 3,7 3,3 0,3 14,1 11,8 0 0 3 2 N 1020,7 1,2 0 0,0
23.05.2019 05:00:00 4,8 4,4 0,4 14,2 11,8 3 1 4 2 WNW 1020,6 0,8 0 0,0
23.05.2019 04:00:00 4,9 4,3 0,9 14,3 11,8 0 0 3 2 N 1020,7 0,4 0 0,0
23.05.2019 03:00:00 5,3 4,6 1,6 14,4 11,8 0 0 2 1 N 1020,8 0,1 0 0,0
23.05.2019 02:00:00 6,8 6,1 2,1 14,4 11,8 0 0 2 1 N 1021,1 11 0 0,0
23.05.2019 01:00:00 7,9 7,0 3,5 14,5 11,8 2 1 3 2 W 1021,0 18 0 0,0
23.05.2019 00:00:00 9,0 7,8 5,6 14,5 11,8 2 1 4 2 E 1020,9 19 0 0,0
22.05.2019 23:00:00 10,0 8,4 7,2 14,5 11,8 4 2 5 3 E 1021,0 20 0 0,0
22.05.2019 22:00:00 11,8 9,4 8,3 14,4 11,8 2 1 4 2 S 1020,5 20 0 0,0
22.05.2019 21:00:00 14,8 9,8 12,5 14,4 11,8 0 0 8 4 N 1019,9 20 0 0,0
22.05.2019 20:00:00 17,8 8,4 17,1 14,3 11,8 6 3 14 8 NW 1019,7 20 2 0,0
22.05.2019 19:00:00 18,9 8,5 19,4 14,2 11,8 9 5 16 9 W 1019,6 20 29 0,0
22.05.2019 18:00:00 20,3 7,6 21,0 14,1 11,8 9 5 22 12 WSW 1019,7 20 55 0,0
22.05.2019 17:00:00 18,7 7,8 20,3 13,9 11,7 14 8 26 14 WNW 1020,1 20 9 0,0
22.05.2019 16:00:00 19,3 8,0 20,7 13,8 11,8 12 7 22 12 WNW 1020,2 20 25 0,0
22.05.2019 15:00:00 18,9 9,1 19,6 13,7 11,8 13 7 26 14 WNW 1020,2 20 6 0,0
22.05.2019 14:00:00 17,9 7,0 20,0 13,5 11,7 11 6 26 14 WNW 1020,5 20 22 0,0
22.05.2019 13:00:00 17,7 7,1 20,4 13,4 11,7 14 7 24 13 NNW 1020,4 20 29 0,0
22.05.2019 12:00:00 17,6 7,9 20,8 13,4 11,7 11 6 21 11 NW 1020,5 20 40 0,0
22.05.2019 11:00:00 17,0 8,4 20,6 13,4 11,7 6 3 16 8 WNW 1020,5 20 60 0,0
22.05.2019 10:00:00 14,8 8,7 15,5 13,5 11,7 3 2 8 5 W 1020,6 19 60 0,0
22.05.2019 09:00:00 12,0 8,5 13,7 13,6 11,7 0 0 5 3 N 1020,8 12 60 0,0
22.05.2019 08:00:00 8,7 7,8 4,1 13,7 11,8 0 0 3 2 N 1020,8 8 60 0,0
22.05.2019 07:00:00 3,7 3,3 -1,3 13,9 11,7 0 0 4 2 N 1021,1 3,6 38 0,0
22.05.2019 06:00:00 2,7 2,3 -1,8 14,0 11,8 3 2 4 2 WSW 1020,9 9 0 0,0
22.05.2019 05:00:00 2,6 2,0 -1,5 14,1 11,7 2 1 4 2 WSW 1020,8 14 0 0,0
22.05.2019 04:00:00 3,1 2,4 -1,0 14,2 11,7 2 1 4 2 WSW 1020,6 8 0 0,0
22.05.2019 03:00:00 4,3 3,6 -0,7 14,3 11,7 2 1 6 3 WSW 1020,3 12 0 0,0
22.05.2019 02:00:00 5,6 4,7 1,2 14,4 11,7 5 3 10 6 WNW 1020,1 20 0 0,0
22.05.2019 01:00:00 6,8 5,6 1,3 14,5 11,7 5 3 6 4 W 1020,0 20 0 0,0
22.05.2019 00:00:00 8,2 5,8 3,7 14,5 11,7 3 2 9 5 NW 1019,7 20 0 0,0
21.05.2019 23:00:00 9,4 5,9 4,9 14,5 11,7 6 3 9 5 NNW 1019,5 20 0 0,0
21.05.2019 22:00:00 12,4 6,4 10,0 14,5 11,7 9 5 20 11 NNW 1018,8 20 0 0,0
21.05.2019 21:00:00 15,4 7,2 14,3 14,4 11,7 13 7 27 15 N 1017,9 20 60 0,0
21.05.2019 20:00:00 17,5 7,5 17,7 14,4 11,7 18 10 34 19 NNW 1017,1 20 60 0,0
21.05.2019 19:00:00 18,2 7,6 18,8 14,3 11,7 22 12 39 21 NNW 1016,7 20 60 0,0
21.05.2019 18:00:00 18,4 6,9 18,9 14,2 11,7 24 13 39 21 NNW 1016,5 20 56 0,0
21.05.2019 17:00:00 18,1 6,6 18,9 14,0 11,7 25 13 45 24 NNW 1016,3 20 38 0,0
21.05.2019 16:00:00 19,3 8,6 21,5 13,9 11,6 25 13 42 23 NNW 1016,0 20 49 0,0
21.05.2019 15:00:00 18,3 8,8 20,8 13,8 11,6 24 13 42 23 NNW 1015,8 20 49 0,0
21.05.2019 14:00:00 18,0 8,8 22,8 13,7 11,7 28 15 43 23 N 1015,7 20 60 0,0
21.05.2019 13:00:00 17,6 9,5 22,8 13,7 11,7 21 12 36 20 NW 1015,5 19 60 0,0
21.05.2019 12:00:00 15,7 9,8 17,3 13,7 11,6 20 11 32 18 NW 1015,5 20 18 0,0
21.05.2019 11:00:00 13,9 8,3 15,2 13,7 11,7 21 11 29 16 NW 1015,3 16 20 0,0
21.05.2019 10:00:00 12,1 8,0 13,6 13,8 11,6 16 9 26 14 WNW 1015,4 12 0 0,0
21.05.2019 09:00:00 11,2 7,9 12,2 13,8 11,6 15 8 24 13 NW 1015,1 10 0 0,0
21.05.2019 08:00:00 10,5 7,6 9,6 13,8 11,6 16 9 28 15 NW 1014,6 9 21 0,0
21.05.2019 07:00:00 9,4 7,2 9,3 13,9 11,6 12 6 26 14 NW 1014,4 8 0 0,0
21.05.2019 06:00:00 10,0 7,9 10,0 13,9 11,6 13 7 29 15 NW 1013,8 6 0 0,0
21.05.2019 05:00:00 10,1 7,7 10,2 14,0 11,6 17 9 27 15 WNW 1013,5 6 0 0,0
21.05.2019 04:00:00 10,8 8,2 10,8 14,0 11,6 16 9 28 15 WNW 1013,4 7 0 0,0
21.05.2019 03:00:00 11,7 9,6 11,6 14,1 11,6 12 7 25 14 WNW 1013,1 8 0 0,0
21.05.2019 02:00:00 11,7 9,9 11,7 14,1 11,6 12 6 26 14 WNW 1012,9 7 0 0,0
21.05.2019 01:00:00 11,8 9,7 11,7 14,1 11,6 10 6 30 16 WNW 1013,1 17 0 0,0
21.05.2019 00:00:00 12,0 9,9 11,7 14,1 11,6 15 8 24 13 NW 1013,2 14 0 0,0
20.05.2019 23:00:00 11,9 10,0 11,7 14,2 11,6 12 7 24 13 NW 1013,0 9 0 0,0
20.05.2019 22:00:00 12,0 9,9 11,9 14,2 11,6 19 10 34 18 NNW 1012,5 7 0 0,0
20.05.2019 21:00:00 12,2 9,9 12,0 14,2 11,6 20 11 33 18 NW 1011,8 8 0 0,0
20.05.2019 20:00:00 12,4 10,3 12,6 14,2 11,6 17 9 34 18 NNW 1011,4 8 0 0,0
20.05.2019 19:00:00 12,8 10,3 13,2 14,2 11,6 17 9 28 15 NW 1011,3 9 0 0,0
20.05.2019 18:00:00 12,8 10,3 13,6 14,2 11,6 17 9 31 17 NW 1011,0 8 0 0,0

tt = Température de l'air
td = dewpoint
tt 5cm = Température de l'air 5cm
tt -20cm = Température de l'air -20cm
tt -100cm = Température de l'air -100cm
ff = Vitesse du vent
fx = gusts
dd = Direction du vent
ppp = reduced air pressure
vv = visibility
sd = Ensoleillement
rr = Quantités de précipitations

stations d'obs. à proximité